Year,Month,Day,Hour,Minute,Value (Times are PST for temperature in C)
2017,08,04,00,00,22.20
2017,08,04,00,01,22.30
2017,08,04,00,02,22.40
2017,08,04,00,03,22.50
2017,08,04,00,04,22.60
2017,08,04,00,05,22.70
2017,08,04,00,06,22.70
2017,08,04,00,07,22.60
2017,08,04,00,08,22.60
2017,08,04,00,09,22.60
2017,08,04,00,10,22.60
2017,08,04,00,11,22.60
2017,08,04,00,12,22.50
2017,08,04,00,13,22.40
2017,08,04,00,14,22.30
2017,08,04,00,15,22.30
2017,08,04,00,16,22.20
2017,08,04,00,17,22.20
2017,08,04,00,18,22.10
2017,08,04,00,19,22.00
2017,08,04,00,20,22.00
2017,08,04,00,21,21.90
2017,08,04,00,22,21.80
2017,08,04,00,23,21.80
2017,08,04,00,24,21.80
2017,08,04,00,25,21.80
2017,08,04,00,26,21.70
2017,08,04,00,27,21.70
2017,08,04,00,28,21.60
2017,08,04,00,29,21.50
2017,08,04,00,30,21.50
2017,08,04,00,31,21.40
2017,08,04,00,32,21.40
2017,08,04,00,33,21.40
2017,08,04,00,34,21.40
2017,08,04,00,35,21.50
2017,08,04,00,36,21.50
2017,08,04,00,37,21.60
2017,08,04,00,38,21.70
2017,08,04,00,39,21.60
2017,08,04,00,40,21.60
2017,08,04,00,41,21.60
2017,08,04,00,42,21.50
2017,08,04,00,43,21.40
2017,08,04,00,44,21.20
2017,08,04,00,45,21.00
2017,08,04,00,46,20.90
2017,08,04,00,47,20.80
2017,08,04,00,48,20.60
2017,08,04,00,49,20.50
2017,08,04,00,50,20.40
2017,08,04,00,51,20.30
2017,08,04,00,52,20.20
2017,08,04,00,53,20.10
2017,08,04,00,54,20.10
2017,08,04,00,55,20.10
2017,08,04,00,56,20.00
2017,08,04,00,57,20.10
2017,08,04,00,58,20.10
2017,08,04,00,59,20.10
2017,08,04,01,00,20.10
2017,08,04,01,01,20.10
2017,08,04,01,02,20.10
2017,08,04,01,03,20.10
2017,08,04,01,04,20.10
2017,08,04,01,05,20.10
2017,08,04,01,06,20.10
2017,08,04,01,07,20.10
2017,08,04,01,08,20.20
2017,08,04,01,09,20.20
2017,08,04,01,10,20.20
2017,08,04,01,11,20.20
2017,08,04,01,12,20.20
2017,08,04,01,13,20.30
2017,08,04,01,14,20.30
2017,08,04,01,15,20.30
2017,08,04,01,16,20.30
2017,08,04,01,17,20.30
2017,08,04,01,18,20.30
2017,08,04,01,19,20.30
2017,08,04,01,20,20.30
2017,08,04,01,21,20.20
2017,08,04,01,22,20.00
2017,08,04,01,23,19.80
2017,08,04,01,24,19.60
2017,08,04,01,25,19.40
2017,08,04,01,26,19.40
2017,08,04,01,27,19.30
2017,08,04,01,28,19.20
2017,08,04,01,29,19.20
2017,08,04,01,30,19.10
2017,08,04,01,31,19.10
2017,08,04,01,32,19.10
2017,08,04,01,33,19.00
2017,08,04,01,34,19.00
2017,08,04,01,35,18.90
2017,08,04,01,36,18.80
2017,08,04,01,37,18.70
2017,08,04,01,38,18.60
2017,08,04,01,39,18.50
2017,08,04,01,40,18.30
2017,08,04,01,41,18.20
2017,08,04,01,42,18.10
2017,08,04,01,43,17.90
2017,08,04,01,44,17.80
2017,08,04,01,45,17.70
2017,08,04,01,46,17.70
2017,08,04,01,47,17.60
2017,08,04,01,48,17.50
2017,08,04,01,49,17.40
2017,08,04,01,50,17.30
2017,08,04,01,51,17.20
2017,08,04,01,52,17.20
2017,08,04,01,53,17.10
2017,08,04,01,54,17.10
2017,08,04,01,55,17.10
2017,08,04,01,56,17.00
2017,08,04,01,57,17.00
2017,08,04,01,58,17.00
2017,08,04,01,59,17.00
2017,08,04,02,00,17.00
2017,08,04,02,01,16.90
2017,08,04,02,02,16.90
2017,08,04,02,03,16.80
2017,08,04,02,04,16.70
2017,08,04,02,05,16.70
2017,08,04,02,06,16.70
2017,08,04,02,07,16.70
2017,08,04,02,08,16.70
2017,08,04,02,09,16.70
2017,08,04,02,10,16.70
2017,08,04,02,11,16.70
2017,08,04,02,12,16.70
2017,08,04,02,13,16.80
2017,08,04,02,14,16.80
2017,08,04,02,15,16.80
2017,08,04,02,16,16.80
2017,08,04,02,17,16.80
2017,08,04,02,18,16.80
2017,08,04,02,19,16.80
2017,08,04,02,20,16.80
2017,08,04,02,21,16.80
2017,08,04,02,22,16.80
2017,08,04,02,23,16.80
2017,08,04,02,24,16.80
2017,08,04,02,25,16.80
2017,08,04,02,26,16.80
2017,08,04,02,27,16.80
2017,08,04,02,28,16.80
2017,08,04,02,29,16.80
2017,08,04,02,30,16.70
2017,08,04,02,31,16.70
2017,08,04,02,32,16.70
2017,08,04,02,33,16.70
2017,08,04,02,34,16.70
2017,08,04,02,35,16.70
2017,08,04,02,36,16.60
2017,08,04,02,37,16.60
2017,08,04,02,38,16.60
2017,08,04,02,39,16.60
2017,08,04,02,40,16.60
2017,08,04,02,41,16.60
2017,08,04,02,42,16.60
2017,08,04,02,43,16.60
2017,08,04,02,44,16.60
2017,08,04,02,45,16.60
2017,08,04,02,46,16.60
2017,08,04,02,47,16.60
2017,08,04,02,48,16.50
2017,08,04,02,49,16.50
2017,08,04,02,50,16.40
2017,08,04,02,51,16.40
2017,08,04,02,52,16.40
2017,08,04,02,53,16.40
2017,08,04,02,54,16.30
2017,08,04,02,55,16.30
2017,08,04,02,56,16.20
2017,08,04,02,57,16.10
2017,08,04,02,58,16.00
2017,08,04,02,59,16.00
2017,08,04,03,00,15.90
2017,08,04,03,01,15.90
2017,08,04,03,02,15.80
2017,08,04,03,03,15.80
2017,08,04,03,04,15.80
2017,08,04,03,05,15.70
2017,08,04,03,06,15.70
2017,08,04,03,07,15.60
2017,08,04,03,08,15.60
2017,08,04,03,09,15.60
2017,08,04,03,10,15.60
2017,08,04,03,11,15.60
2017,08,04,03,12,15.60
2017,08,04,03,13,15.70
2017,08,04,03,14,15.70
2017,08,04,03,15,15.80
2017,08,04,03,16,15.80
2017,08,04,03,17,15.80
2017,08,04,03,18,15.80
2017,08,04,03,19,15.70
2017,08,04,03,20,15.70
2017,08,04,03,21,15.60
2017,08,04,03,22,15.50
2017,08,04,03,23,15.40
2017,08,04,03,24,15.40
2017,08,04,03,25,15.30
2017,08,04,03,26,15.20
2017,08,04,03,27,15.20
2017,08,04,03,28,15.20
2017,08,04,03,29,15.10
2017,08,04,03,30,15.00
2017,08,04,03,31,15.00
2017,08,04,03,32,15.00
2017,08,04,03,33,15.00
2017,08,04,03,34,15.00
2017,08,04,03,35,15.00
2017,08,04,03,36,15.00
2017,08,04,03,37,15.00
2017,08,04,03,38,15.00
2017,08,04,03,39,15.00
2017,08,04,03,40,15.00
2017,08,04,03,41,15.00
2017,08,04,03,42,15.00
2017,08,04,03,43,15.00
2017,08,04,03,44,15.00
2017,08,04,03,45,15.00
2017,08,04,03,46,15.00
2017,08,04,03,47,15.00
2017,08,04,03,48,15.00
2017,08,04,03,49,15.00
2017,08,04,03,50,15.00
2017,08,04,03,51,14.90
2017,08,04,03,52,14.80
2017,08,04,03,53,14.70
2017,08,04,03,54,14.70
2017,08,04,03,55,14.60
2017,08,04,03,56,14.60
2017,08,04,03,57,14.60
2017,08,04,03,58,14.60
2017,08,04,03,59,14.60
2017,08,04,04,00,14.60
2017,08,04,04,01,14.60
2017,08,04,04,02,14.60
2017,08,04,04,03,14.60
2017,08,04,04,04,14.60
2017,08,04,04,05,14.60
2017,08,04,04,06,14.60
2017,08,04,04,07,14.60
2017,08,04,04,08,14.60
2017,08,04,04,09,14.60
2017,08,04,04,10,14.60
2017,08,04,04,11,14.60
2017,08,04,04,12,14.60
2017,08,04,04,13,14.60
2017,08,04,04,14,14.60
2017,08,04,04,15,14.60
2017,08,04,04,16,14.60
2017,08,04,04,17,14.60
2017,08,04,04,18,14.60
2017,08,04,04,19,14.60
2017,08,04,04,20,14.60
2017,08,04,04,21,14.60
2017,08,04,04,22,14.60
2017,08,04,04,23,14.60
2017,08,04,04,24,14.60
2017,08,04,04,25,14.60
2017,08,04,04,26,14.60
2017,08,04,04,27,14.50
2017,08,04,04,28,14.50
2017,08,04,04,29,14.50
2017,08,04,04,30,14.40
2017,08,04,04,31,14.40
2017,08,04,04,32,14.40
2017,08,04,04,33,14.40
2017,08,04,04,34,14.40
2017,08,04,04,35,14.40
2017,08,04,04,36,14.40
2017,08,04,04,37,14.40
2017,08,04,04,38,14.40
2017,08,04,04,39,14.40
2017,08,04,04,40,14.30
2017,08,04,04,41,14.30
2017,08,04,04,42,14.30
2017,08,04,04,43,14.30
2017,08,04,04,44,14.30
2017,08,04,04,45,14.30
2017,08,04,04,46,14.30
2017,08,04,04,47,14.30
2017,08,04,04,48,14.30
2017,08,04,04,49,14.30
2017,08,04,04,50,14.30
2017,08,04,04,51,14.30
2017,08,04,04,52,14.30
2017,08,04,04,53,14.30
2017,08,04,04,54,14.30
2017,08,04,04,55,14.30
2017,08,04,04,56,14.30
2017,08,04,04,57,14.30
2017,08,04,04,58,14.20
2017,08,04,04,59,14.20
2017,08,04,05,00,14.20
2017,08,04,05,01,14.20
2017,08,04,05,02,14.30
2017,08,04,05,03,14.30
2017,08,04,05,04,14.30
2017,08,04,05,05,14.30
2017,08,04,05,06,14.30
2017,08,04,05,07,14.30
2017,08,04,05,08,14.20
2017,08,04,05,09,14.20
2017,08,04,05,10,14.20
2017,08,04,05,11,14.20
2017,08,04,05,12,14.10
2017,08,04,05,13,14.10
2017,08,04,05,14,14.00
2017,08,04,05,15,14.00
2017,08,04,05,16,14.00
2017,08,04,05,17,13.90
2017,08,04,05,18,13.90
2017,08,04,05,19,13.90
2017,08,04,05,20,13.90
2017,08,04,05,21,13.90
2017,08,04,05,22,13.90
2017,08,04,05,23,13.90
2017,08,04,05,24,13.90
2017,08,04,05,25,13.90
2017,08,04,05,26,13.90
2017,08,04,05,27,13.90
2017,08,04,05,28,13.90
2017,08,04,05,29,13.80
2017,08,04,05,30,13.80
2017,08,04,05,31,13.80
2017,08,04,05,32,13.70
2017,08,04,05,33,13.70
2017,08,04,05,34,13.70
2017,08,04,05,35,13.70
2017,08,04,05,36,13.70
2017,08,04,05,37,13.70
2017,08,04,05,38,13.70
2017,08,04,05,39,13.70
2017,08,04,05,40,13.70
2017,08,04,05,41,13.70
2017,08,04,05,42,13.70
2017,08,04,05,43,13.70
2017,08,04,05,44,13.70
2017,08,04,05,45,13.70
2017,08,04,05,46,13.60
2017,08,04,05,47,13.60
2017,08,04,05,48,13.60
2017,08,04,05,49,13.50
2017,08,04,05,50,13.50
2017,08,04,05,51,13.50
2017,08,04,05,52,13.50
2017,08,04,05,53,13.50
2017,08,04,05,54,13.50
2017,08,04,05,55,13.60
2017,08,04,05,56,13.60
2017,08,04,05,57,13.60
2017,08,04,05,58,13.60
2017,08,04,05,59,13.60
2017,08,04,06,00,13.60
2017,08,04,06,01,13.60
2017,08,04,06,02,13.60
2017,08,04,06,03,13.60
2017,08,04,06,04,13.60
2017,08,04,06,05,13.60
2017,08,04,06,06,13.60
2017,08,04,06,07,13.60
2017,08,04,06,08,13.60
2017,08,04,06,09,13.60
2017,08,04,06,10,13.70
2017,08,04,06,11,13.70
2017,08,04,06,12,13.70
2017,08,04,06,13,13.70
2017,08,04,06,14,13.70
2017,08,04,06,15,13.70
2017,08,04,06,16,13.70
2017,08,04,06,17,13.70
2017,08,04,06,18,13.70
2017,08,04,06,19,13.70
2017,08,04,06,20,13.70
2017,08,04,06,21,13.70
2017,08,04,06,22,13.70
2017,08,04,06,23,13.70
2017,08,04,06,24,13.70
2017,08,04,06,25,13.70
2017,08,04,06,26,13.60
2017,08,04,06,27,13.60
2017,08,04,06,28,13.60
2017,08,04,06,29,13.60
2017,08,04,06,30,13.60
2017,08,04,06,31,13.60
2017,08,04,06,32,13.60
2017,08,04,06,33,13.60
2017,08,04,06,34,13.60
2017,08,04,06,35,13.60
2017,08,04,06,36,13.60
2017,08,04,06,37,13.60
2017,08,04,06,38,13.70
2017,08,04,06,39,13.70
2017,08,04,06,40,13.80
2017,08,04,06,41,13.80
2017,08,04,06,42,13.90
2017,08,04,06,43,14.00
2017,08,04,06,44,14.00
2017,08,04,06,45,14.00
2017,08,04,06,46,14.10
2017,08,04,06,47,14.10
2017,08,04,06,48,14.20
2017,08,04,06,49,14.20
2017,08,04,06,50,14.30
2017,08,04,06,51,14.40
2017,08,04,06,52,14.40
2017,08,04,06,53,14.50
2017,08,04,06,54,14.50
2017,08,04,06,55,14.60
2017,08,04,06,56,14.60
2017,08,04,06,57,14.60
2017,08,04,06,58,14.60
2017,08,04,06,59,14.70
2017,08,04,07,00,14.70
2017,08,04,07,01,14.80
2017,08,04,07,02,14.80
2017,08,04,07,03,15.00
2017,08,04,07,04,15.00
2017,08,04,07,05,15.00
2017,08,04,07,06,15.00
2017,08,04,07,07,15.00
2017,08,04,07,08,15.10
2017,08,04,07,09,15.20
2017,08,04,07,10,15.30
2017,08,04,07,11,15.40
2017,08,04,07,12,15.40
2017,08,04,07,13,15.50
2017,08,04,07,14,15.60
2017,08,04,07,15,15.60
2017,08,04,07,16,15.70
2017,08,04,07,17,15.70
2017,08,04,07,18,15.80
2017,08,04,07,19,15.80
2017,08,04,07,20,15.90
2017,08,04,07,21,16.00
2017,08,04,07,22,16.10
2017,08,04,07,23,16.10
2017,08,04,07,24,16.20
2017,08,04,07,25,16.20
2017,08,04,07,26,16.30
2017,08,04,07,27,16.30
2017,08,04,07,28,16.40
2017,08,04,07,29,16.50
2017,08,04,07,30,16.60
2017,08,04,07,31,16.60
2017,08,04,07,32,16.70
2017,08,04,07,33,16.80
2017,08,04,07,34,16.80
2017,08,04,07,35,16.90
2017,08,04,07,36,17.00
2017,08,04,07,37,17.00
2017,08,04,07,38,17.10
2017,08,04,07,39,17.10
2017,08,04,07,40,17.20
2017,08,04,07,41,17.20
2017,08,04,07,42,17.30
2017,08,04,07,43,17.30
2017,08,04,07,44,17.30
2017,08,04,07,45,17.40
2017,08,04,07,46,17.40
2017,08,04,07,47,17.40
2017,08,04,07,48,17.40
2017,08,04,07,49,17.50
2017,08,04,07,50,17.50
2017,08,04,07,51,17.60
2017,08,04,07,52,17.60
2017,08,04,07,53,17.60
2017,08,04,07,54,17.70
2017,08,04,07,55,17.70
2017,08,04,07,56,17.70
2017,08,04,07,57,17.80
2017,08,04,07,58,17.80
2017,08,04,07,59,17.80
2017,08,04,08,00,17.80
2017,08,04,08,01,17.80
2017,08,04,08,02,17.90
2017,08,04,08,03,17.90
2017,08,04,08,04,18.00
2017,08,04,08,05,18.00
2017,08,04,08,06,18.10
2017,08,04,08,07,18.10
2017,08,04,08,08,18.20
2017,08,04,08,09,18.30
2017,08,04,08,10,18.30
2017,08,04,08,11,18.40
2017,08,04,08,12,18.50
2017,08,04,08,13,18.50
2017,08,04,08,14,18.60
2017,08,04,08,15,18.60
2017,08,04,08,16,18.70
2017,08,04,08,17,18.70
2017,08,04,08,18,18.80
2017,08,04,08,19,18.80
2017,08,04,08,20,18.90
2017,08,04,08,21,18.90
2017,08,04,08,22,19.00
2017,08,04,08,23,19.10
2017,08,04,08,24,19.10
2017,08,04,08,25,19.20
2017,08,04,08,26,19.30
2017,08,04,08,27,19.40
2017,08,04,08,28,19.50
2017,08,04,08,29,19.60
2017,08,04,08,30,19.70
2017,08,04,08,31,19.70
2017,08,04,08,32,19.80
2017,08,04,08,33,19.90
2017,08,04,08,34,19.90
2017,08,04,08,35,19.90
2017,08,04,08,36,19.90
2017,08,04,08,37,19.90
2017,08,04,08,38,20.00
2017,08,04,08,39,20.00
2017,08,04,08,40,20.10
2017,08,04,08,41,20.20
2017,08,04,08,42,20.20
2017,08,04,08,43,20.30
2017,08,04,08,44,20.30
2017,08,04,08,45,20.40
2017,08,04,08,46,20.40
2017,08,04,08,47,20.50
2017,08,04,08,48,20.60
2017,08,04,08,49,20.60
2017,08,04,08,50,20.60
2017,08,04,08,51,20.70
2017,08,04,08,52,20.70
2017,08,04,08,53,20.70
2017,08,04,08,54,20.70
2017,08,04,08,55,20.70
2017,08,04,08,56,20.70
2017,08,04,08,57,20.80
2017,08,04,08,58,20.80
2017,08,04,08,59,20.80
2017,08,04,09,00,20.80
2017,08,04,09,01,20.80
2017,08,04,09,02,20.80
2017,08,04,09,03,20.70
2017,08,04,09,04,20.70
2017,08,04,09,05,20.70
2017,08,04,09,06,20.70
2017,08,04,09,07,20.80
2017,08,04,09,08,20.80
2017,08,04,09,09,20.80
2017,08,04,09,10,20.80
2017,08,04,09,11,20.90
2017,08,04,09,12,20.90
2017,08,04,09,13,20.90
2017,08,04,09,14,20.90
2017,08,04,09,15,20.80
2017,08,04,09,16,20.80
2017,08,04,09,17,20.80
2017,08,04,09,18,20.80
2017,08,04,09,19,20.90
2017,08,04,09,20,20.90
2017,08,04,09,21,21.00
2017,08,04,09,22,21.00
2017,08,04,09,23,21.00
2017,08,04,09,24,21.00
2017,08,04,09,25,21.00
2017,08,04,09,26,21.00
2017,08,04,09,27,21.10
2017,08,04,09,28,21.10
2017,08,04,09,29,21.20
2017,08,04,09,30,21.10
2017,08,04,09,31,21.10
2017,08,04,09,32,21.10
2017,08,04,09,33,21.10
2017,08,04,09,34,21.20
2017,08,04,09,35,21.20
2017,08,04,09,36,21.20
2017,08,04,09,37,21.20
2017,08,04,09,38,21.20
2017,08,04,09,39,21.20
2017,08,04,09,40,21.20
2017,08,04,09,41,21.20
2017,08,04,09,42,21.20
2017,08,04,09,43,21.10
2017,08,04,09,44,21.10
2017,08,04,09,45,21.00
2017,08,04,09,46,21.00
2017,08,04,09,47,21.10
2017,08,04,09,48,21.10
2017,08,04,09,49,21.10
2017,08,04,09,50,21.10
2017,08,04,09,51,21.10
2017,08,04,09,52,21.10
2017,08,04,09,53,21.20
2017,08,04,09,54,21.20
2017,08,04,09,55,21.20
2017,08,04,09,56,21.20
2017,08,04,09,57,21.20
2017,08,04,09,58,21.10
2017,08,04,09,59,21.10
2017,08,04,10,00,21.20
2017,08,04,10,01,21.20
2017,08,04,10,02,21.20
2017,08,04,10,03,21.30
2017,08,04,10,04,21.30
2017,08,04,10,05,21.30
2017,08,04,10,06,21.30
2017,08,04,10,07,21.30
2017,08,04,10,08,21.40
2017,08,04,10,09,21.40
2017,08,04,10,10,21.50
2017,08,04,10,11,21.50
2017,08,04,10,12,21.60
2017,08,04,10,13,21.60
2017,08,04,10,14,21.60
2017,08,04,10,15,21.60
2017,08,04,10,16,21.60
2017,08,04,10,17,21.60
2017,08,04,10,18,21.70
2017,08,04,10,19,21.70
2017,08,04,10,20,21.80
2017,08,04,10,21,21.80
2017,08,04,10,22,21.80
2017,08,04,10,23,21.80
2017,08,04,10,24,21.90
2017,08,04,10,25,21.90
2017,08,04,10,26,22.00
2017,08,04,10,27,22.00
2017,08,04,10,28,22.00
2017,08,04,10,29,22.10
2017,08,04,10,30,22.10
2017,08,04,10,31,22.20
2017,08,04,10,32,22.20
2017,08,04,10,33,22.30
2017,08,04,10,34,22.30
2017,08,04,10,35,22.40
2017,08,04,10,36,22.40
2017,08,04,10,37,22.40
2017,08,04,10,38,22.40
2017,08,04,10,39,22.40
2017,08,04,10,40,22.30
2017,08,04,10,41,22.30
2017,08,04,10,42,22.40
2017,08,04,10,43,22.40
2017,08,04,10,44,22.40
2017,08,04,10,45,22.40
2017,08,04,10,46,22.50
2017,08,04,10,47,22.50
2017,08,04,10,48,22.50
2017,08,04,10,49,22.40
2017,08,04,10,50,22.40
2017,08,04,10,51,22.30
2017,08,04,10,52,22.30
2017,08,04,10,53,22.30
2017,08,04,10,54,22.40
2017,08,04,10,55,22.40
2017,08,04,10,56,22.30
2017,08,04,10,57,22.20
2017,08,04,10,58,22.20
2017,08,04,10,59,22.10
2017,08,04,11,00,22.00
2017,08,04,11,01,22.00
2017,08,04,11,02,22.00
2017,08,04,11,03,21.90
2017,08,04,11,04,21.80
2017,08,04,11,05,21.80
2017,08,04,11,06,21.80
2017,08,04,11,07,21.80
2017,08,04,11,08,21.80
2017,08,04,11,09,21.80
2017,08,04,11,10,21.80
2017,08,04,11,11,21.90
2017,08,04,11,12,22.00
2017,08,04,11,13,22.00
2017,08,04,11,14,22.00
2017,08,04,11,15,21.90
2017,08,04,11,16,21.90
2017,08,04,11,17,22.00
2017,08,04,11,18,22.00
2017,08,04,11,19,22.00
2017,08,04,11,20,22.00
2017,08,04,11,21,22.00
2017,08,04,11,22,22.00
2017,08,04,11,23,21.90
2017,08,04,11,24,21.80
2017,08,04,11,25,21.80
2017,08,04,11,26,21.80
2017,08,04,11,27,21.80
2017,08,04,11,28,21.90
2017,08,04,11,29,21.90
2017,08,04,11,30,21.80
2017,08,04,11,31,21.90
2017,08,04,11,32,21.90
2017,08,04,11,33,21.80
2017,08,04,11,34,21.80
2017,08,04,11,35,21.80
2017,08,04,11,36,21.90
2017,08,04,11,37,21.90
2017,08,04,11,38,22.00
2017,08,04,11,39,22.00
2017,08,04,11,40,21.90
2017,08,04,11,41,22.00
2017,08,04,11,42,22.00
2017,08,04,11,43,22.10
2017,08,04,11,44,22.10
2017,08,04,11,45,22.20
2017,08,04,11,46,22.30
2017,08,04,11,47,22.40
2017,08,04,11,48,22.40
2017,08,04,11,49,22.40
2017,08,04,11,50,22.30
2017,08,04,11,51,22.30
2017,08,04,11,52,22.40
2017,08,04,11,53,22.40
2017,08,04,11,54,22.40
2017,08,04,11,55,22.30
2017,08,04,11,56,22.40
2017,08,04,11,57,22.40
2017,08,04,11,58,22.40
2017,08,04,11,59,22.40
2017,08,04,12,00,22.40
2017,08,04,12,01,22.50
2017,08,04,12,02,22.50
2017,08,04,12,03,22.40
2017,08,04,12,04,22.40
2017,08,04,12,05,22.40
2017,08,04,12,06,22.30
2017,08,04,12,07,22.30
2017,08,04,12,08,22.40
2017,08,04,12,09,22.40
2017,08,04,12,10,22.40
2017,08,04,12,11,22.50
2017,08,04,12,12,22.50
2017,08,04,12,13,22.50
2017,08,04,12,14,22.40
2017,08,04,12,15,22.40
2017,08,04,12,16,22.40
2017,08,04,12,17,22.30
2017,08,04,12,18,22.30
2017,08,04,12,19,22.30
2017,08,04,12,20,22.30
2017,08,04,12,21,22.40
2017,08,04,12,22,22.50
2017,08,04,12,23,22.60
2017,08,04,12,24,22.60
2017,08,04,12,25,22.60
2017,08,04,12,26,22.60
2017,08,04,12,27,22.60
2017,08,04,12,28,22.60
2017,08,04,12,29,22.50
2017,08,04,12,30,22.40
2017,08,04,12,31,22.30
2017,08,04,12,32,22.20
2017,08,04,12,33,22.20
2017,08,04,12,34,22.20
2017,08,04,12,35,22.20
2017,08,04,12,36,22.10
2017,08,04,12,37,22.10
2017,08,04,12,38,22.10
2017,08,04,12,39,22.20
2017,08,04,12,40,22.20
2017,08,04,12,41,22.40
2017,08,04,12,42,22.60
2017,08,04,12,43,22.70
2017,08,04,12,44,22.80
2017,08,04,12,45,22.80
2017,08,04,12,46,22.90
2017,08,04,12,47,23.00
2017,08,04,12,48,23.00
2017,08,04,12,49,23.00
2017,08,04,12,50,23.00
2017,08,04,12,51,23.00
2017,08,04,12,52,23.00
2017,08,04,12,53,23.00
2017,08,04,12,54,23.10
2017,08,04,12,55,23.10
2017,08,04,12,56,23.20
2017,08,04,12,57,23.20
2017,08,04,12,58,23.20
2017,08,04,12,59,23.20
2017,08,04,13,00,23.20
2017,08,04,13,01,23.20
2017,08,04,13,02,23.20
2017,08,04,13,03,23.30
2017,08,04,13,04,23.30
2017,08,04,13,05,23.30
2017,08,04,13,06,23.40
2017,08,04,13,07,23.40
2017,08,04,13,08,23.50
2017,08,04,13,09,23.50
2017,08,04,13,10,23.60
2017,08,04,13,11,23.50
2017,08,04,13,12,23.50
2017,08,04,13,13,23.40
2017,08,04,13,14,23.40
2017,08,04,13,15,23.40
2017,08,04,13,16,23.50
2017,08,04,13,17,23.60
2017,08,04,13,18,23.60
2017,08,04,13,19,23.70
2017,08,04,13,20,23.80
2017,08,04,13,21,23.70
2017,08,04,13,22,23.70
2017,08,04,13,23,23.70
2017,08,04,13,24,23.80
2017,08,04,13,25,23.70
2017,08,04,13,26,23.70
2017,08,04,13,27,23.80
2017,08,04,13,28,23.80
2017,08,04,13,29,23.80
2017,08,04,13,30,23.70
2017,08,04,13,31,23.70
2017,08,04,13,32,23.80
2017,08,04,13,33,23.80
2017,08,04,13,34,23.90
2017,08,04,13,35,23.90
2017,08,04,13,36,24.10
2017,08,04,13,37,24.10
2017,08,04,13,38,24.10
2017,08,04,13,39,24.10
2017,08,04,13,40,24.10
2017,08,04,13,41,24.10
2017,08,04,13,42,24.10
2017,08,04,13,43,24.20
2017,08,04,13,44,24.30
2017,08,04,13,45,24.40
2017,08,04,13,46,24.40
2017,08,04,13,47,24.60
2017,08,04,13,48,24.70
2017,08,04,13,49,24.80
2017,08,04,13,50,24.80
2017,08,04,13,51,24.80
2017,08,04,13,52,24.80
2017,08,04,13,53,24.70
2017,08,04,13,54,24.70
2017,08,04,13,55,24.70
2017,08,04,13,56,24.80
2017,08,04,13,57,24.80
2017,08,04,13,58,24.90
2017,08,04,13,59,24.90
2017,08,04,14,00,25.00
2017,08,04,14,01,25.10
2017,08,04,14,02,25.20
2017,08,04,14,03,25.20
2017,08,04,14,04,25.30
2017,08,04,14,05,25.30
2017,08,04,14,06,25.40
2017,08,04,14,07,25.40
2017,08,04,14,08,25.30
2017,08,04,14,09,25.30
2017,08,04,14,10,25.30
2017,08,04,14,11,25.20
2017,08,04,14,12,25.20
2017,08,04,14,13,25.20
2017,08,04,14,14,25.20
2017,08,04,14,15,25.20
2017,08,04,14,16,25.20
2017,08,04,14,17,25.20
2017,08,04,14,18,25.10
2017,08,04,14,19,25.00
2017,08,04,14,20,25.00
2017,08,04,14,21,25.10
2017,08,04,14,22,25.10
2017,08,04,14,23,25.20
2017,08,04,14,24,25.30
2017,08,04,14,25,25.40
2017,08,04,14,26,25.50
2017,08,04,14,27,25.50
2017,08,04,14,28,25.60
2017,08,04,14,29,25.70
2017,08,04,14,30,25.80
2017,08,04,14,31,25.80
2017,08,04,14,32,25.70
2017,08,04,14,33,25.60
2017,08,04,14,34,25.60
2017,08,04,14,35,25.60
2017,08,04,14,36,25.60
2017,08,04,14,37,25.70
2017,08,04,14,38,25.70
2017,08,04,14,39,25.70
2017,08,04,14,40,25.80
2017,08,04,14,41,25.80
2017,08,04,14,42,25.90
2017,08,04,14,43,25.90
2017,08,04,14,44,25.90
2017,08,04,14,45,25.90
2017,08,04,14,46,25.90
2017,08,04,14,47,25.90
2017,08,04,14,48,25.90
2017,08,04,14,49,26.00
2017,08,04,14,50,26.10
2017,08,04,14,51,26.10
2017,08,04,14,52,26.20
2017,08,04,14,53,26.20
2017,08,04,14,54,26.20
2017,08,04,14,55,26.30
2017,08,04,14,56,26.40
2017,08,04,14,57,26.50
2017,08,04,14,58,26.50
2017,08,04,14,59,26.60
2017,08,04,15,00,26.70
2017,08,04,15,01,26.70
2017,08,04,15,02,26.80
2017,08,04,15,03,26.80
2017,08,04,15,04,26.80
2017,08,04,15,05,26.90
2017,08,04,15,06,26.90
2017,08,04,15,07,26.90
2017,08,04,15,08,26.90
2017,08,04,15,09,26.90
2017,08,04,15,10,26.90
2017,08,04,15,11,26.90
2017,08,04,15,12,26.90
2017,08,04,15,13,26.90
2017,08,04,15,14,26.90
2017,08,04,15,15,26.90
2017,08,04,15,16,26.80
2017,08,04,15,17,26.90
2017,08,04,15,18,26.90
2017,08,04,15,19,27.00
2017,08,04,15,20,27.00
2017,08,04,15,21,27.10
2017,08,04,15,22,27.10
2017,08,04,15,23,27.10
2017,08,04,15,24,27.20
2017,08,04,15,25,27.20
2017,08,04,15,26,27.30
2017,08,04,15,27,27.30
2017,08,04,15,28,27.40
2017,08,04,15,29,27.50
2017,08,04,15,30,27.50
2017,08,04,15,31,27.60
2017,08,04,15,32,27.60
2017,08,04,15,33,27.60
2017,08,04,15,34,27.60
2017,08,04,15,35,27.60
2017,08,04,15,36,27.60
2017,08,04,15,37,27.60
2017,08,04,15,38,27.60
2017,08,04,15,39,27.60
2017,08,04,15,40,27.50
2017,08,04,15,41,27.50
2017,08,04,15,42,27.60
2017,08,04,15,43,27.60
2017,08,04,15,44,27.60
2017,08,04,15,45,27.60
2017,08,04,15,46,27.60
2017,08,04,15,47,27.60
2017,08,04,15,48,27.60
2017,08,04,15,49,27.60
2017,08,04,15,50,27.60
2017,08,04,15,51,27.60
2017,08,04,15,52,27.60
2017,08,04,15,53,27.60
2017,08,04,15,54,27.60
2017,08,04,15,55,27.60
2017,08,04,15,56,27.60
2017,08,04,15,57,27.60
2017,08,04,15,58,27.60
2017,08,04,15,59,27.60
2017,08,04,16,00,27.60
2017,08,04,16,01,27.60
2017,08,04,16,02,27.70
2017,08,04,16,03,27.70
2017,08,04,16,04,27.80
2017,08,04,16,05,27.80
2017,08,04,16,06,27.80
2017,08,04,16,07,27.90
2017,08,04,16,08,27.90
2017,08,04,16,09,28.00
2017,08,04,16,10,28.10
2017,08,04,16,11,28.20
2017,08,04,16,12,28.20
2017,08,04,16,13,28.30
2017,08,04,16,14,28.30
2017,08,04,16,15,28.30
2017,08,04,16,16,28.30
2017,08,04,16,17,28.30
2017,08,04,16,18,28.40
2017,08,04,16,19,28.40
2017,08,04,16,20,28.40
2017,08,04,16,21,28.40
2017,08,04,16,22,28.50
2017,08,04,16,23,28.50
2017,08,04,16,24,28.50
2017,08,04,16,25,28.60
2017,08,04,16,26,28.60
2017,08,04,16,27,28.60
2017,08,04,16,28,28.50
2017,08,04,16,29,28.50
2017,08,04,16,30,28.50
2017,08,04,16,31,28.60
2017,08,04,16,32,28.60
2017,08,04,16,33,28.60
2017,08,04,16,34,28.50
2017,08,04,16,35,28.50
2017,08,04,16,36,28.50
2017,08,04,16,37,28.40
2017,08,04,16,38,28.40
2017,08,04,16,39,28.40
2017,08,04,16,40,28.40
2017,08,04,16,41,28.30
2017,08,04,16,42,28.30
2017,08,04,16,43,28.30
2017,08,04,16,44,28.30
2017,08,04,16,45,28.30
2017,08,04,16,46,28.30
2017,08,04,16,47,28.30
2017,08,04,16,48,28.30
2017,08,04,16,49,28.30
2017,08,04,16,50,28.30
2017,08,04,16,51,28.30
2017,08,04,16,52,28.30
2017,08,04,16,53,28.30
2017,08,04,16,54,28.30
2017,08,04,16,55,28.30
2017,08,04,16,56,28.30
2017,08,04,16,57,28.20
2017,08,04,16,58,28.20
2017,08,04,16,59,28.30
2017,08,04,17,00,28.30
2017,08,04,17,01,28.20
2017,08,04,17,02,28.20
2017,08,04,17,03,28.20
2017,08,04,17,04,28.30
2017,08,04,17,05,28.20
2017,08,04,17,06,28.20
2017,08,04,17,07,28.30
2017,08,04,17,08,28.30
2017,08,04,17,09,28.20
2017,08,04,17,10,28.10
2017,08,04,17,11,28.10
2017,08,04,17,12,28.10
2017,08,04,17,13,28.00
2017,08,04,17,14,28.10
2017,08,04,17,15,28.10
2017,08,04,17,16,28.10
2017,08,04,17,17,28.10
2017,08,04,17,18,28.10
2017,08,04,17,19,28.20